Regional Weather Roundup
Issued by NWS

Home | Current Version | Previous Version | Text Only | Print | Product List | Glossary On
Versions: 1 2 3 4 5 6 7 8 9 10 11 12 13 14 15 16 17 18 19 20 21 22 23 24 25 26 27 28 29 30 31 32 33 34 35 36 37 38 39 40 41 42 43 44 45 46 47 48 49 50
000
ASUS45 KBOI 280610
RWRID
WEATHER ROUNDUP FOR IDAHO
NATIONAL WEATHER SERVICE BOISE ID
1200 AM MDT MON JUL 28 2014

NOTE: "FAIR" INDICATES FEW OR NO CLOUDS BELOW 12000 FEET
WITH NO SIGNIFICANT WEATHER AND/OR OBSTRUCTIONS TO VISIBILITY

IDZ012-014-280700-
SOUTHWEST IDAHO


CITY           SKY/WX    TMP DP  RH WIND       PRES   REMARKS
BOISE          MOCLDY    81  45  28 CALM      29.99S
CALDWELL       MOCLDY    79  52  38 CALM      29.99F
MOUNTAIN HOME  CLOUDY    82  32  17 W6        30.01R
$$

IDZ016-017-280700-
SOUTHCENTRAL IDAHO


CITY           SKY/WX    TMP DP  RH WIND       PRES   REMARKS
BURLEY         CLOUDY    71  59  65 SE5       30.10R
JEROME         CLOUDY    79  43  27 NE8       30.08F
TWIN FALLS     CLOUDY    79  38  22 SW6       30.10R
$$

IDZ019>023-280700-
SOUTHEAST IDAHO


CITY           SKY/WX    TMP DP  RH WIND       PRES   REMARKS
IDAHO FALLS    CLEAR     58  46  64 N6        30.18S
POCATELLO      CLEAR     72  34  24 SE3       30.14S
REXBURG        PTCLDY    59  45  59 NE6       30.20R
$$

IDZ006-010-011-018-031-032-280700-
CENTRAL IDAHO MOUNTAINS


CITY           SKY/WX    TMP DP  RH WIND       PRES   REMARKS
MCCALL         CLEAR     74  35  24 NW5       30.21R
HAILEY         CLOUDY    70  45  40 E3        30.24R
STANLEY          N/A     62  31  31 S5        30.33R
SALMON         CLEAR     64  34  32 SE6       30.14S
CHALLIS        PTCLDY    68  36  30 CALM      30.20R
$$

IDZ002-004-006-007-026-280700-
NORTHERN IDAHO


CITY           SKY/WX    TMP DP  RH WIND       PRES   REMARKS
LEWISTON       MOCLDY    82  39  21 S6        30.00S
LOWELL           N/A     66  54  65 NW5       30.06R
COEUR D`ALENE  PTCLDY    68  48  49 E5        30.09R
MULLAN PASS    MOCLDY    68  33  27 VRB3      30.33F
$$


USA.gov is the U.S. government's official web portal to all federal, state and local government web resources and services.